TAIP08 YCBG-YCBG

Flight info

Callsign TAIP08
Flight time 1h 46m
Altitude 3500
Route VFR
Aircraft EC35/L-VGD/C

Departure

Time 2026-04-24 04:37
Airport Cambridge Aerodrome (YCBG)

Arrival

Time 2026-04-24 06:23
Airport Cambridge Aerodrome (YCBG)
Time Latitude Longitude Altitude Speed Heading
2026-04-24 04:33 -42.82980 147.47719 38 ft 0 kts 320°
2026-04-24 04:35 -42.82979 147.47719 40 ft 1 kts 321°
2026-04-24 04:36 -42.82975 147.47719 46 ft 1 kts 338°
2026-04-24 04:36 -42.82966 147.47717 52 ft 2 kts 347°
2026-04-24 04:36 -42.82956 147.47712 60 ft 7 kts 347°
2026-04-24 04:36 -42.82815 147.47680 235 ft 11 kts 347°
2026-04-24 04:37 -42.82676 147.47652 216 ft 36 kts 349°
2026-04-24 04:37 -42.82341 147.47532 419 ft 54 kts 347°
2026-04-24 04:37 -42.81881 147.47383 655 ft 77 kts 350°
2026-04-24 04:37 -42.81479 147.46945 857 ft 77 kts 305°
2026-04-24 04:38 -42.81498 147.46175 937 ft 91 kts 253°
2026-04-24 04:38 -42.81973 147.45611 972 ft 100 kts 208°
2026-04-24 04:38 -42.82669 147.45595 1001 ft 101 kts 170°
2026-04-24 04:38 -42.83343 147.45815 1004 ft 97 kts 169°
2026-04-24 04:39 -42.84003 147.46063 1010 ft 99 kts 167°
2026-04-24 04:39 -42.84756 147.46328 994 ft 122 kts 166°
2026-04-24 04:39 -42.85551 147.46588 1008 ft 118 kts 168°
2026-04-24 04:39 -42.86357 147.46884 1012 ft 116 kts 171°
2026-04-24 04:40 -42.87164 147.47194 1019 ft 125 kts 165°
2026-04-24 04:40 -42.87982 147.47464 1001 ft 121 kts 166°
2026-04-24 04:40 -42.88804 147.47725 1000 ft 121 kts 169°
2026-04-24 04:40 -42.89633 147.47979 1030 ft 119 kts 175°
2026-04-24 04:41 -42.90417 147.47791 1029 ft 112 kts 204°
2026-04-24 04:41 -42.91141 147.47390 1029 ft 111 kts 208°
2026-04-24 04:41 -42.91826 147.46904 1031 ft 109 kts 208°
2026-04-24 04:41 -42.92487 147.46430 1031 ft 105 kts 211°
2026-04-24 04:42 -42.93140 147.45972 1026 ft 106 kts 211°
2026-04-24 04:42 -42.93800 147.45518 1022 ft 106 kts 212°
2026-04-24 04:42 -42.94464 147.45068 1018 ft 107 kts 210°
2026-04-24 04:42 -42.95155 147.44700 1023 ft 109 kts 194°
2026-04-24 04:43 -42.95901 147.44524 1024 ft 108 kts 191°
2026-04-24 04:43 -42.96653 147.44366 1026 ft 110 kts 191°
2026-04-24 04:43 -42.97410 147.44421 1026 ft 111 kts 165°
2026-04-24 04:43 -42.98132 147.44761 1026 ft 110 kts 161°
2026-04-24 04:44 -42.98851 147.45125 1026 ft 110 kts 161°
2026-04-24 04:44 -42.99570 147.45498 1025 ft 111 kts 161°
2026-04-24 04:44 -43.00297 147.45884 1025 ft 113 kts 161°
2026-04-24 04:44 -43.01022 147.46264 1024 ft 110 kts 161°
2026-04-24 04:45 -43.01734 147.46635 1024 ft 109 kts 162°
2026-04-24 04:45 -43.02451 147.47009 1023 ft 111 kts 162°
2026-04-24 04:45 -43.03184 147.47393 1025 ft 113 kts 160°
2026-04-24 04:45 -43.03906 147.47761 1019 ft 111 kts 160°
2026-04-24 04:46 -43.04629 147.48125 1030 ft 110 kts 161°
2026-04-24 04:46 -43.05340 147.48495 1015 ft 109 kts 162°
2026-04-24 04:46 -43.06053 147.48879 1021 ft 109 kts 160°
2026-04-24 04:46 -43.06787 147.49149 1019 ft 110 kts 184°
2026-04-24 04:47 -43.07471 147.48781 1020 ft 106 kts 225°
2026-04-24 04:47 -43.07785 147.47920 1020 ft 101 kts 268°
2026-04-24 04:47 -43.07585 147.47056 1020 ft 98 kts 310°
2026-04-24 04:47 -43.06987 147.46644 1022 ft 101 kts 353°
2026-04-24 04:48 -43.06315 147.46889 1023 ft 102 kts 23°
2026-04-24 04:48 -43.05685 147.47356 1021 ft 104 kts 26°
2026-04-24 04:48 -43.05055 147.47845 1021 ft 104 kts 26°
2026-04-24 04:48 -43.04425 147.48333 1028 ft 103 kts 27°
2026-04-24 04:49 -43.03806 147.48804 1016 ft 101 kts 25°
2026-04-24 04:49 -43.03188 147.49287 1019 ft 102 kts 26°
2026-04-24 04:49 -43.02692 147.49994 1013 ft 108 kts 63°
2026-04-24 04:49 -43.02661 147.51021 1018 ft 111 kts 107°
2026-04-24 04:50 -43.03126 147.51831 1019 ft 109 kts 149°
2026-04-24 04:50 -43.03857 147.52018 1014 ft 109 kts 192°
2026-04-24 04:50 -43.04564 147.51672 1015 ft 107 kts 207°
2026-04-24 04:50 -43.05235 147.51235 1011 ft 107 kts 212°
2026-04-24 04:51 -43.05873 147.50727 1009 ft 104 kts 218°
2026-04-24 04:51 -43.06251 147.49951 1006 ft 100 kts 259°
2026-04-24 04:51 -43.06120 147.49042 1009 ft 98 kts 304°
2026-04-24 04:51 -43.05617 147.48407 1009 ft 99 kts 315°
2026-04-24 04:52 -43.05141 147.47738 1008 ft 98 kts 313°
2026-04-24 04:52 -43.04676 147.47051 1009 ft 99 kts 312°
2026-04-24 04:52 -43.04209 147.46358 1011 ft 99 kts 311°
2026-04-24 04:52 -43.03786 147.45622 1010 ft 100 kts 297°
2026-04-24 04:53 -43.03548 147.44724 1010 ft 101 kts 289°
2026-04-24 04:53 -43.03335 147.43806 1012 ft 101 kts 289°
2026-04-24 04:53 -43.03029 147.42963 1008 ft 100 kts 316°
2026-04-24 04:53 -43.02435 147.42500 1010 ft 98 kts 335°
2026-04-24 04:54 -43.01806 147.42149 1012 ft 98 kts 337°
2026-04-24 04:54 -43.01174 147.41804 1012 ft 98 kts 336°
2026-04-24 04:54 -43.00537 147.41462 1009 ft 98 kts 338°
2026-04-24 04:54 -42.99880 147.41179 1002 ft 102 kts 352°
2026-04-24 04:55 -42.99172 147.41264 1018 ft 101 kts
2026-04-24 04:55 -42.98484 147.41403 1018 ft 101 kts
2026-04-24 04:55 -42.97795 147.41541 1013 ft 100 kts
2026-04-24 04:55 -42.97103 147.41689 1013 ft 102 kts
2026-04-24 04:56 -42.96404 147.41840 1008 ft 102 kts
2026-04-24 04:56 -42.95707 147.41989 1008 ft 102 kts
2026-04-24 04:56 -42.95017 147.42130 1008 ft 100 kts
2026-04-24 04:56 -42.94327 147.42269 1009 ft 100 kts
2026-04-24 04:57 -42.93637 147.42408 1013 ft 100 kts
2026-04-24 04:57 -42.92950 147.42578 1004 ft 102 kts 11°
2026-04-24 04:57 -42.92376 147.43171 1020 ft 109 kts 52°
2026-04-24 04:57 -42.92132 147.44138 1014 ft 108 kts 75°
2026-04-24 04:58 -42.91976 147.45145 1012 ft 108 kts 75°
2026-04-24 04:58 -42.91833 147.46130 1008 ft 107 kts 76°
2026-04-24 04:58 -42.91711 147.47149 1015 ft 109 kts 75°
2026-04-24 04:58 -42.91614 147.48157 1007 ft 110 kts 73°
2026-04-24 04:59 -42.91516 147.49211 1018 ft 109 kts 77°
2026-04-24 04:59 -42.91590 147.50220 1012 ft 112 kts 109°
2026-04-24 04:59 -42.91949 147.51152 1006 ft 111 kts 115°
2026-04-24 04:59 -42.92391 147.52079 1001 ft 121 kts 127°
2026-04-24 05:00 -42.93114 147.52658 1017 ft 120 kts 160°
2026-04-24 05:00 -42.93888 147.52966 1008 ft 117 kts 166°
2026-04-24 05:00 -42.94392 147.53161 1016 ft 110 kts 166°
2026-04-24 05:00 -42.95360 147.53535 1004 ft 109 kts 166°
2026-04-24 05:01 -42.95847 147.53720 1013 ft 109 kts 166°
2026-04-24 05:01 -42.96830 147.54079 1013 ft 110 kts 167°
2026-04-24 05:01 -42.97323 147.54256 1011 ft 111 kts 166°
2026-04-24 05:01 -42.98067 147.54520 1012 ft 110 kts 167°
2026-04-24 05:02 -42.98810 147.54779 1006 ft 110 kts 167°
2026-04-24 05:02 -42.99726 147.55364 1010 ft 110 kts 147°
2026-04-24 05:02 -43.00154 147.55762 1007 ft 111 kts 147°
2026-04-24 05:02 -43.00791 147.56365 1011 ft 111 kts 146°
2026-04-24 05:03 -43.01421 147.56963 1011 ft 109 kts 145°
2026-04-24 05:03 -43.02038 147.57552 1008 ft 110 kts 146°
2026-04-24 05:03 -43.02669 147.58151 1009 ft 111 kts 145°
2026-04-24 05:03 -43.03307 147.58741 1011 ft 110 kts 146°
2026-04-24 05:04 -43.03940 147.59326 1007 ft 110 kts 146°
2026-04-24 05:04 -43.04569 147.59911 1004 ft 109 kts 147°
2026-04-24 05:04 -43.05202 147.60503 1008 ft 110 kts 146°
2026-04-24 05:04 -43.05837 147.61103 1001 ft 114 kts 145°
2026-04-24 05:05 -43.06497 147.61696 1014 ft 113 kts 146°
2026-04-24 05:05 -43.07151 147.62275 1011 ft 114 kts 145°
2026-04-24 05:05 -43.07827 147.62870 1016 ft 115 kts 146°
2026-04-24 05:05 -43.08497 147.63448 1013 ft 114 kts 146°
2026-04-24 05:06 -43.09166 147.64037 1009 ft 114 kts 147°
2026-04-24 05:06 -43.09830 147.64638 1009 ft 115 kts 147°
2026-04-24 05:06 -43.10488 147.65235 1012 ft 112 kts 146°
2026-04-24 05:06 -43.11136 147.65819 1012 ft 112 kts 145°
2026-04-24 05:07 -43.11796 147.66413 1013 ft 114 kts 144°
2026-04-24 05:07 -43.12463 147.66983 1012 ft 114 kts 146°
2026-04-24 05:07 -43.13133 147.67555 1007 ft 114 kts 147°
2026-04-24 05:07 -43.13789 147.68120 1005 ft 110 kts 147°
2026-04-24 05:08 -43.14442 147.68681 1011 ft 110 kts 147°
2026-04-24 05:08 -43.15119 147.69172 1010 ft 112 kts 154°
2026-04-24 05:08 -43.15837 147.69625 1016 ft 113 kts 155°
2026-04-24 05:08 -43.16556 147.70076 1015 ft 114 kts 154°
2026-04-24 05:09 -43.17260 147.70526 1003 ft 112 kts 155°
2026-04-24 05:09 -43.17973 147.70967 998 ft 114 kts 155°
2026-04-24 05:09 -43.18695 147.71407 1007 ft 113 kts 155°
2026-04-24 05:09 -43.19392 147.71890 1007 ft 111 kts 142°
2026-04-24 05:10 -43.20003 147.72562 1006 ft 112 kts 137°
2026-04-24 05:10 -43.20532 147.73345 1007 ft 113 kts 124°
2026-04-24 05:10 -43.21029 147.74190 1006 ft 115 kts 126°
2026-04-24 05:10 -43.21535 147.75028 1013 ft 112 kts 126°
2026-04-24 05:11 -43.22041 147.75864 1010 ft 114 kts 126°
2026-04-24 05:11 -43.22541 147.76704 1009 ft 115 kts 128°
2026-04-24 05:11 -43.23031 147.77585 1012 ft 116 kts 126°
2026-04-24 05:11 -43.23517 147.78472 1012 ft 116 kts 127°
2026-04-24 05:12 -43.23989 147.79364 1006 ft 116 kts 126°
2026-04-24 05:12 -43.24356 147.80324 1010 ft 114 kts 100°
2026-04-24 05:12 -43.24367 147.81388 1009 ft 110 kts 79°
2026-04-24 05:12 -43.24269 147.82433 1006 ft 110 kts 77°
2026-04-24 05:13 -43.24117 147.84465 1005 ft 110 kts 77°
2026-04-24 05:13 -43.24035 147.85505 1010 ft 109 kts 77°
2026-04-24 05:13 -43.23962 147.86521 1007 ft 107 kts 77°
2026-04-24 05:14 -43.23896 147.87554 1012 ft 109 kts 77°
2026-04-24 05:14 -43.23827 147.88591 1015 ft 108 kts 78°
2026-04-24 05:14 -43.23750 147.89615 1008 ft 109 kts 78°
2026-04-24 05:14 -43.23670 147.90645 1010 ft 109 kts 77°
2026-04-24 05:15 -43.23598 147.91688 1103 ft 109 kts 78°
2026-04-24 05:15 -43.23531 147.92729 1325 ft 113 kts 78°
2026-04-24 05:15 -43.23466 147.93819 1432 ft 113 kts 78°
2026-04-24 05:15 -43.23338 147.94842 1472 ft 100 kts 57°
2026-04-24 05:16 -43.22953 147.95467 1488 ft 78 kts 25°
2026-04-24 05:16 -43.22486 147.95828 1494 ft 78 kts 18°
2026-04-24 05:16 -43.22000 147.96169 1502 ft 77 kts 16°
2026-04-24 05:16 -43.21515 147.96315 1498 ft 71 kts 355°
2026-04-24 05:17 -43.21061 147.96362 1507 ft 58 kts 354°
2026-04-24 05:17 -43.20676 147.96403 1504 ft 55 kts 354°
2026-04-24 05:17 -43.20290 147.96466 1506 ft 56 kts 356°
2026-04-24 05:17 -43.19903 147.96514 1502 ft 57 kts 355°
2026-04-24 05:18 -43.19515 147.96557 1512 ft 57 kts 354°
2026-04-24 05:18 -43.19137 147.96497 1509 ft 52 kts 320°
2026-04-24 05:18 -43.18853 147.96182 1502 ft 54 kts 316°
2026-04-24 05:18 -43.18583 147.95838 1506 ft 53 kts 316°
2026-04-24 05:19 -43.18332 147.95478 1504 ft 52 kts 315°
2026-04-24 05:19 -43.18086 147.95119 1504 ft 52 kts 315°
2026-04-24 05:19 -43.17840 147.94761 1502 ft 52 kts 312°
2026-04-24 05:19 -43.17735 147.94278 1502 ft 54 kts 288°
2026-04-24 05:20 -43.17610 147.93805 1501 ft 53 kts 296°
2026-04-24 05:20 -43.17499 147.93320 1501 ft 54 kts 293°
2026-04-24 05:20 -43.17396 147.92827 1502 ft 54 kts 293°
2026-04-24 05:20 -43.17292 147.92337 1502 ft 54 kts 293°
2026-04-24 05:21 -43.17189 147.91847 1502 ft 53 kts 293°
2026-04-24 05:21 -43.17088 147.91358 1503 ft 54 kts 293°
2026-04-24 05:21 -43.16986 147.90867 1504 ft 54 kts 293°
2026-04-24 05:21 -43.16883 147.90375 1500 ft 54 kts 292°
2026-04-24 05:22 -43.16781 147.89890 1499 ft 53 kts 297°
2026-04-24 05:22 -43.16590 147.89466 1505 ft 52 kts 309°
2026-04-24 05:22 -43.16366 147.89054 1495 ft 59 kts 311°
2026-04-24 05:22 -43.16086 147.88472 1502 ft 79 kts 304°
2026-04-24 05:23 -43.15792 147.87846 1507 ft 78 kts 304°
2026-04-24 05:23 -43.15507 147.87220 1507 ft 77 kts 304°
2026-04-24 05:23 -43.15227 147.86592 1507 ft 78 kts 304°
2026-04-24 05:23 -43.14947 147.85956 1508 ft 78 kts 304°
2026-04-24 05:24 -43.14670 147.85320 1501 ft 77 kts 304°
2026-04-24 05:24 -43.14390 147.84699 1501 ft 76 kts 304°
2026-04-24 05:24 -43.14094 147.84102 1503 ft 76 kts 316°
2026-04-24 05:24 -43.13596 147.83915 1500 ft 78 kts
2026-04-24 05:25 -43.13075 147.84139 1500 ft 81 kts 19°
2026-04-24 05:25 -43.12570 147.84478 1501 ft 80 kts 24°
2026-04-24 05:25 -43.12054 147.84819 1508 ft 83 kts 21°
2026-04-24 05:25 -43.11561 147.85156 1502 ft 79 kts 23°
2026-04-24 05:26 -43.11064 147.85493 1505 ft 80 kts 22°
2026-04-24 05:26 -43.10566 147.85857 1504 ft 81 kts 23°
2026-04-24 05:26 -43.10018 147.86155 1483 ft 97 kts
2026-04-24 05:26 -43.09280 147.86340 1505 ft 109 kts
2026-04-24 05:27 -43.08545 147.86489 1500 ft 107 kts
2026-04-24 05:27 -43.07802 147.86630 1502 ft 108 kts
2026-04-24 05:27 -43.07062 147.86764 1501 ft 108 kts
2026-04-24 05:27 -43.06313 147.86894 1504 ft 108 kts
2026-04-24 05:28 -43.05576 147.87030 1510 ft 107 kts
2026-04-24 05:28 -43.04829 147.87176 1508 ft 108 kts
2026-04-24 05:28 -43.04087 147.87324 1510 ft 106 kts
2026-04-24 05:28 -43.03360 147.87562 1508 ft 111 kts 20°
2026-04-24 05:29 -43.02832 147.88331 1507 ft 117 kts 56°
2026-04-24 05:29 -43.02482 147.89350 1511 ft 119 kts 60°
2026-04-24 05:29 -43.02161 147.90390 1506 ft 118 kts 62°
2026-04-24 05:29 -43.01836 147.91426 1506 ft 119 kts 62°
2026-04-24 05:30 -43.01526 147.92461 1504 ft 119 kts 62°
2026-04-24 05:30 -43.01195 147.93487 1502 ft 117 kts 52°
2026-04-24 05:30 -43.00597 147.94155 1514 ft 108 kts 12°
2026-04-24 05:30 -42.99887 147.94152 1504 ft 101 kts 338°
2026-04-24 05:31 -42.99380 147.93551 1505 ft 98 kts 310°
2026-04-24 05:31 -42.98991 147.92767 1518 ft 99 kts 306°
2026-04-24 05:31 -42.98617 147.91983 1509 ft 99 kts 306°
2026-04-24 05:31 -42.98193 147.91225 1509 ft 102 kts 315°
2026-04-24 05:32 -42.97655 147.90603 1517 ft 99 kts 321°
2026-04-24 05:32 -42.97161 147.89974 1508 ft 97 kts 318°
2026-04-24 05:32 -42.96664 147.89323 1508 ft 101 kts 317°
2026-04-24 05:32 -42.96138 147.88662 1510 ft 104 kts 319°
2026-04-24 05:33 -42.95618 147.88014 1513 ft 99 kts 319°
2026-04-24 05:33 -42.95119 147.87385 1509 ft 97 kts 319°
2026-04-24 05:33 -42.94623 147.86749 1510 ft 99 kts 319°
2026-04-24 05:34 -42.93575 147.85489 1513 ft 101 kts 320°
2026-04-24 05:34 -42.93030 147.84890 1512 ft 99 kts 321°
2026-04-24 05:34 -42.92492 147.84299 1508 ft 100 kts 322°
2026-04-24 05:34 -42.91952 147.83696 1508 ft 102 kts 321°
2026-04-24 05:35 -42.91403 147.83085 1510 ft 101 kts 321°
2026-04-24 05:35 -42.90866 147.82476 1515 ft 99 kts 321°
2026-04-24 05:35 -42.90331 147.81869 1503 ft 102 kts 322°
2026-04-24 05:35 -42.89683 147.81489 1500 ft 108 kts 353°
2026-04-24 05:36 -42.88891 147.81740 1502 ft 121 kts 15°
2026-04-24 05:36 -42.88115 147.82138 1500 ft 120 kts 15°
2026-04-24 05:36 -42.87329 147.82558 1502 ft 122 kts 15°
2026-04-24 05:36 -42.86542 147.82981 1502 ft 122 kts 17°
2026-04-24 05:37 -42.85768 147.83416 1504 ft 118 kts 16°
2026-04-24 05:37 -42.84994 147.83839 1497 ft 121 kts 15°
2026-04-24 05:37 -42.84221 147.84271 1504 ft 120 kts 17°
2026-04-24 05:37 -42.83450 147.84697 1504 ft 119 kts 17°
2026-04-24 05:38 -42.82667 147.85122 1503 ft 121 kts 15°
2026-04-24 05:38 -42.81902 147.85584 1502 ft 120 kts 17°
2026-04-24 05:38 -42.81167 147.86026 1507 ft 114 kts 17°
2026-04-24 05:38 -42.80417 147.86459 1500 ft 121 kts 15°
2026-04-24 05:39 -42.79654 147.86923 1515 ft 116 kts 15°
2026-04-24 05:39 -42.78932 147.87378 1500 ft 117 kts 18°
2026-04-24 05:39 -42.78171 147.87825 1508 ft 120 kts 16°
2026-04-24 05:39 -42.77418 147.88283 1510 ft 116 kts 17°
2026-04-24 05:40 -42.76683 147.88735 1505 ft 118 kts 15°
2026-04-24 05:40 -42.75952 147.89254 1505 ft 123 kts 26°
2026-04-24 05:40 -42.75288 147.89948 1508 ft 120 kts 29°
2026-04-24 05:40 -42.74625 147.90664 1512 ft 122 kts 30°
2026-04-24 05:41 -42.73967 147.91399 1509 ft 122 kts 30°
2026-04-24 05:41 -42.73316 147.92155 1560 ft 119 kts 30°
2026-04-24 05:41 -42.72709 147.92885 1537 ft 119 kts 31°
2026-04-24 05:41 -42.72066 147.93618 1528 ft 119 kts 30°
2026-04-24 05:42 -42.71435 147.94351 1518 ft 120 kts 30°
2026-04-24 05:42 -42.70788 147.95089 1518 ft 121 kts 30°
2026-04-24 05:42 -42.70142 147.95810 1524 ft 119 kts 31°
2026-04-24 05:42 -42.69493 147.96521 1519 ft 122 kts 29°
2026-04-24 05:43 -42.68837 147.97254 1521 ft 120 kts 30°
2026-04-24 05:43 -42.68202 147.97959 1520 ft 117 kts 30°
2026-04-24 05:43 -42.67554 147.98674 1521 ft 122 kts 30°
2026-04-24 05:43 -42.66901 147.99387 1515 ft 120 kts 31°
2026-04-24 05:44 -42.66257 148.00095 1522 ft 119 kts 30°
2026-04-24 05:44 -42.65607 148.00808 1524 ft 121 kts 30°
2026-04-24 05:44 -42.64967 148.01542 1525 ft 120 kts 30°
2026-04-24 05:44 -42.64334 148.02274 1526 ft 118 kts 30°
2026-04-24 05:45 -42.63702 148.02970 1525 ft 115 kts 25°
2026-04-24 05:45 -42.63023 148.03551 1523 ft 115 kts 20°
2026-04-24 05:45 -42.62325 148.04058 1529 ft 113 kts 18°
2026-04-24 05:45 -42.61626 148.04542 1518 ft 114 kts 18°
2026-04-24 05:46 -42.60914 148.05035 1530 ft 114 kts 17°
2026-04-24 05:46 -42.60206 148.05526 1527 ft 115 kts 17°
2026-04-24 05:46 -42.59491 148.06033 1534 ft 116 kts 18°
2026-04-24 05:46 -42.58793 148.06515 1531 ft 114 kts 17°
2026-04-24 05:47 -42.58080 148.07001 1532 ft 114 kts 16°
2026-04-24 05:47 -42.57369 148.07510 1528 ft 116 kts 16°
2026-04-24 05:47 -42.56652 148.07977 1528 ft 111 kts
2026-04-24 05:47 -42.56167 148.08011 1532 ft 102 kts 345°
2026-04-24 05:48 -42.55396 148.07339 1527 ft 99 kts 315°
2026-04-24 05:48 -42.55078 148.06503 1527 ft 102 kts 295°
2026-04-24 05:48 -42.54941 148.05891 1526 ft 102 kts 293°
2026-04-24 05:48 -42.54668 148.05015 1526 ft 101 kts 301°
2026-04-24 05:49 -42.54364 148.04156 1528 ft 101 kts 300°
2026-04-24 05:49 -42.54059 148.03289 1530 ft 102 kts 300°
2026-04-24 05:49 -42.53746 148.02411 1531 ft 104 kts 300°
2026-04-24 05:49 -42.53429 148.01534 1529 ft 105 kts 300°
2026-04-24 05:50 -42.53108 148.00650 1535 ft 105 kts 300°
2026-04-24 05:50 -42.52787 147.99765 1534 ft 104 kts 300°
2026-04-24 05:50 -42.52470 147.98881 1528 ft 104 kts 299°
2026-04-24 05:50 -42.52201 147.97959 1530 ft 105 kts 296°
2026-04-24 05:51 -42.51951 147.97041 1528 ft 105 kts 295°
2026-04-24 05:51 -42.51699 147.96111 1527 ft 105 kts 295°
2026-04-24 05:51 -42.51447 147.95180 1539 ft 104 kts 295°
2026-04-24 05:51 -42.51197 147.94252 1532 ft 105 kts 295°
2026-04-24 05:52 -42.50948 147.93324 1531 ft 105 kts 295°
2026-04-24 05:52 -42.50699 147.92394 1535 ft 105 kts 295°
2026-04-24 05:52 -42.50449 147.91463 1532 ft 105 kts 295°
2026-04-24 05:52 -42.50202 147.90544 1553 ft 106 kts 296°
2026-04-24 05:53 -42.49919 147.89564 1777 ft 110 kts 297°
2026-04-24 05:53 -42.49663 147.88617 1928 ft 103 kts 296°
2026-04-24 05:53 -42.49452 147.87724 2086 ft 96 kts 295°
2026-04-24 05:53 -42.49262 147.86898 2329 ft 90 kts 295°
2026-04-24 05:54 -42.49081 147.86090 2437 ft 92 kts 295°
2026-04-24 05:54 -42.48874 147.85232 2486 ft 100 kts 295°
2026-04-24 05:54 -42.48642 147.84318 2515 ft 103 kts 295°
2026-04-24 05:54 -42.48410 147.83396 2516 ft 104 kts 295°
2026-04-24 05:55 -42.48173 147.82454 2532 ft 106 kts 295°
2026-04-24 05:55 -42.47935 147.81511 2534 ft 108 kts 295°
2026-04-24 05:55 -42.47692 147.80550 2534 ft 107 kts 296°
2026-04-24 05:55 -42.47465 147.79608 2534 ft 105 kts 295°
2026-04-24 05:56 -42.47230 147.78651 2528 ft 108 kts 295°
2026-04-24 05:56 -42.46844 147.77871 2526 ft 101 kts 323°
2026-04-24 05:56 -42.46139 147.77665 2539 ft 115 kts 357°
2026-04-24 05:56 -42.45365 147.78044 2533 ft 119 kts 15°
2026-04-24 05:57 -42.44623 147.78545 2548 ft 119 kts 15°
2026-04-24 05:57 -42.43864 147.79054 2548 ft 124 kts 15°
2026-04-24 05:57 -42.43098 147.79573 2533 ft 123 kts 16°
2026-04-24 05:57 -42.42328 147.80091 2541 ft 124 kts 17°
2026-04-24 05:58 -42.41555 147.80594 2547 ft 121 kts 18°
2026-04-24 05:58 -42.40791 147.81071 2544 ft 122 kts 14°
2026-04-24 05:58 -42.40025 147.81595 2545 ft 123 kts 14°
2026-04-24 05:58 -42.39260 147.82032 2531 ft 115 kts
2026-04-24 05:59 -42.38515 147.81874 2548 ft 106 kts 332°
2026-04-24 05:59 -42.38043 147.81145 2536 ft 111 kts 300°
2026-04-24 05:59 -42.37988 147.80067 2538 ft 124 kts 269°
2026-04-24 05:59 -42.38428 147.79010 2549 ft 137 kts 236°
2026-04-24 06:00 -42.39285 147.78344 2545 ft 148 kts 205°
2026-04-24 06:00 -42.40288 147.78107 2528 ft 150 kts 196°
2026-04-24 06:00 -42.41333 147.77919 2543 ft 153 kts 195°
2026-04-24 06:00 -42.42381 147.77741 2544 ft 149 kts 195°
2026-04-24 06:01 -42.43418 147.77577 2531 ft 151 kts 197°
2026-04-24 06:01 -42.44454 147.77418 2545 ft 148 kts 195°
2026-04-24 06:01 -42.45517 147.77251 2545 ft 154 kts 196°
2026-04-24 06:01 -42.46566 147.77103 2535 ft 152 kts 196°
2026-04-24 06:02 -42.47619 147.76966 2534 ft 151 kts 194°
2026-04-24 06:02 -42.48688 147.77111 2532 ft 159 kts 166°
2026-04-24 06:02 -42.49609 147.77875 2562 ft 155 kts 136°
2026-04-24 06:02 -42.50179 147.79104 2539 ft 152 kts 104°
2026-04-24 06:03 -42.50281 147.80484 2527 ft 144 kts 72°
2026-04-24 06:03 -42.49929 147.81637 2542 ft 124 kts 39°
2026-04-24 06:03 -42.49273 147.82239 2525 ft 109 kts
2026-04-24 06:03 -42.48526 147.82285 2545 ft 107 kts 348°
2026-04-24 06:04 -42.47799 147.82217 2534 ft 107 kts 348°
2026-04-24 06:04 -42.47051 147.82137 2536 ft 106 kts 347°
2026-04-24 06:04 -42.46314 147.82054 2543 ft 108 kts 347°
2026-04-24 06:04 -42.45577 147.81941 2545 ft 108 kts 347°
2026-04-24 06:05 -42.44800 147.81804 2545 ft 112 kts 346°
2026-04-24 06:05 -42.44039 147.81688 2506 ft 111 kts 349°
2026-04-24 06:05 -42.43254 147.81574 2559 ft 111 kts 346°
2026-04-24 06:05 -42.42505 147.81462 2545 ft 108 kts 348°
2026-04-24 06:06 -42.41760 147.81326 2544 ft 108 kts 347°
2026-04-24 06:06 -42.40999 147.81163 2551 ft 111 kts 344°
2026-04-24 06:06 -42.40232 147.81038 2544 ft 113 kts 347°
2026-04-24 06:06 -42.39511 147.80779 2539 ft 105 kts 327°
2026-04-24 06:07 -42.39060 147.80020 2504 ft 110 kts 296°
2026-04-24 06:07 -42.39049 147.78959 2534 ft 120 kts 265°
2026-04-24 06:07 -42.39536 147.77986 2547 ft 134 kts 233°
2026-04-24 06:07 -42.40302 147.77240 2528 ft 137 kts 224°
2026-04-24 06:08 -42.41109 147.76499 2547 ft 141 kts 224°
2026-04-24 06:08 -42.41911 147.75760 2546 ft 137 kts 225°
2026-04-24 06:08 -42.42710 147.75040 2527 ft 138 kts 226°
2026-04-24 06:08 -42.43501 147.74346 2564 ft 136 kts 223°
2026-04-24 06:09 -42.44312 147.73646 2532 ft 142 kts 224°
2026-04-24 06:09 -42.45133 147.72947 2706 ft 136 kts 224°
2026-04-24 06:09 -42.45916 147.72288 2896 ft 130 kts 224°
2026-04-24 06:09 -42.46685 147.71631 2972 ft 131 kts 225°
2026-04-24 06:10 -42.47460 147.70974 3006 ft 132 kts 224°
2026-04-24 06:10 -42.48238 147.70303 3020 ft 133 kts 224°
2026-04-24 06:10 -42.49014 147.69628 3027 ft 132 kts 223°
2026-04-24 06:11 -42.50565 147.68244 3031 ft 135 kts 225°
2026-04-24 06:11 -42.51359 147.67533 3034 ft 135 kts 225°
2026-04-24 06:11 -42.52149 147.66817 3032 ft 135 kts 225°
2026-04-24 06:11 -42.52941 147.66140 3031 ft 134 kts 225°
2026-04-24 06:12 -42.53735 147.65459 3029 ft 136 kts 224°
2026-04-24 06:12 -42.54527 147.64760 3029 ft 137 kts 224°
2026-04-24 06:12 -42.55320 147.64069 3026 ft 135 kts 224°
2026-04-24 06:12 -42.56099 147.63363 3018 ft 136 kts 224°
2026-04-24 06:13 -42.56853 147.62630 3018 ft 132 kts 221°
2026-04-24 06:13 -42.57591 147.61862 3020 ft 135 kts 225°
2026-04-24 06:13 -42.58343 147.61091 3019 ft 133 kts 225°
2026-04-24 06:13 -42.59080 147.60349 3015 ft 133 kts 224°
2026-04-24 06:14 -42.59817 147.59615 3016 ft 130 kts 225°
2026-04-24 06:14 -42.60570 147.58892 3011 ft 135 kts 225°
2026-04-24 06:14 -42.61312 147.58151 3005 ft 131 kts 224°
2026-04-24 06:14 -42.62043 147.57396 3011 ft 133 kts 225°
2026-04-24 06:15 -42.62784 147.56646 3005 ft 133 kts 225°
2026-04-24 06:15 -42.63526 147.55910 3007 ft 134 kts 224°
2026-04-24 06:15 -42.64287 147.55163 3005 ft 135 kts 224°
2026-04-24 06:15 -42.65047 147.54426 3003 ft 135 kts 224°
2026-04-24 06:16 -42.65820 147.53675 2813 ft 138 kts 223°
2026-04-24 06:16 -42.66590 147.52912 2632 ft 137 kts 224°
2026-04-24 06:16 -42.67371 147.52140 2560 ft 138 kts 224°
2026-04-24 06:16 -42.68149 147.51346 2524 ft 142 kts 225°
2026-04-24 06:17 -42.68929 147.50571 2510 ft 137 kts 221°
2026-04-24 06:17 -42.69684 147.49773 2513 ft 135 kts 226°
2026-04-24 06:17 -42.70458 147.49021 2500 ft 140 kts 217°
2026-04-24 06:17 -42.71403 147.48613 2500 ft 146 kts 191°
2026-04-24 06:18 -42.72417 147.48669 2445 ft 145 kts 179°
2026-04-24 06:18 -42.73408 147.48818 2256 ft 140 kts 177°
2026-04-24 06:18 -42.74360 147.48977 2098 ft 139 kts 178°
2026-04-24 06:18 -42.75337 147.49130 2038 ft 141 kts 178°
2026-04-24 06:19 -42.76316 147.49282 2012 ft 141 kts 178°
2026-04-24 06:19 -42.77269 147.49424 1961 ft 141 kts 178°
2026-04-24 06:19 -42.78252 147.49594 1592 ft 141 kts 178°
2026-04-24 06:19 -42.79234 147.49757 1275 ft 142 kts 178°
2026-04-24 06:20 -42.80207 147.49913 1113 ft 140 kts 171°
2026-04-24 06:20 -42.81052 147.50454 1062 ft 123 kts 144°
2026-04-24 06:20 -42.81707 147.51166 1007 ft 123 kts 137°
2026-04-24 06:20 -42.82357 147.51943 1003 ft 126 kts 138°
2026-04-24 06:21 -42.82981 147.52768 996 ft 126 kts 131°
2026-04-24 06:21 -42.83565 147.53578 912 ft 109 kts 133°
2026-04-24 06:21 -42.84152 147.54000 675 ft 92 kts 173°
2026-04-24 06:21 -42.84753 147.53728 573 ft 92 kts 228°
2026-04-24 06:22 -42.85006 147.52986 526 ft 83 kts 280°
2026-04-24 06:22 -42.84762 147.52390 495 ft 75 kts 337°
2026-04-24 06:22 -42.84369 147.51912 511 ft 74 kts 334°
2026-04-24 06:22 -42.83961 147.51498 502 ft 77 kts 333°
2026-04-24 06:23 -42.83515 147.51108 501 ft 77 kts 331°
2026-04-24 06:23 -42.83275 147.50449 509 ft 78 kts 290°
2026-04-24 06:23 -42.83238 147.49788 399 ft 60 kts 295°
2026-04-24 06:23 -42.83158 147.49307 325 ft 49 kts 301°
2026-04-24 06:24 -42.83061 147.48875 199 ft 43 kts 298°
2026-04-24 06:24 -42.83005 147.48532 143 ft 33 kts 300°
2026-04-24 06:24 -42.82944 147.48241 121 ft 31 kts 304°
2026-04-24 06:24 -42.82884 147.47959 93 ft 29 kts 301°
2026-04-24 06:25 -42.82814 147.47736 76 ft 23 kts 279°
2026-04-24 06:25 -42.82795 147.47644 60 ft 2 kts 227°
2026-04-24 06:25 -42.82800 147.47646 61 ft 1 kts 185°
2026-04-24 06:25 -42.82818 147.47646 63 ft 8 kts 171°
2026-04-24 06:26 -42.82852 147.47652 57 ft 7 kts 171°
2026-04-24 06:26 -42.82878 147.47656 104 ft 13 kts 170°
2026-04-24 06:26 -42.82978 147.47697 53 ft 11 kts 92°
2026-04-24 06:26 -42.82979 147.47727 60 ft 4 kts 343°
2026-04-24 06:27 -42.82977 147.47727 57 ft 1 kts 340°
2026-04-24 06:27 -42.82978 147.47725 42 ft 0 kts 340°
2026-04-24 06:27 -42.82980 147.47725 38 ft 0 kts 340°
2026-04-24 06:27 -42.82979 147.47726 37 ft 0 kts 333°
2026-04-24 06:31 -42.82982 147.47721 37 ft 0 kts 320°